CW8078 Weather Reports


time (UTC)temp
C
wind
direction
speed
KPH
gust
KPH
rain 1hr
cm
rain 24hr
cm
rain mn
cm
humidity
%
barometer
mb
20260903194804 36 136 0.0 0.0 0.00 0.00 0.00 46 1009.8
20260903194303 35 101 0.0 0.0 0.00 0.00 0.00 49 1009.9
20260903193803 35 133 0.0 0.0 0.00 0.00 0.00 49 1010.0
20260903193303 36 155 0.0 1.6 0.00 0.00 0.00 47 1010.0
20260903191803 36 161 0.0 0.0 0.00 0.00 0.00 45 1010.3
20260903191303 36 173 0.0 0.0 0.00 0.00 0.00 44 1010.3
20260903190803 36 164 0.0 0.0 0.00 0.00 0.00 44 1010.4
20260903190304 36 155 0.0 1.6 0.00 0.00 0.00 50 1010.4
20260903184804 36 134 0.0 0.0 0.00 0.00 0.00 47 1010.6
20260903184303 36 328 0.0 1.6 0.00 0.00 0.00 49 1010.6
20260903180803 36 135 0.0 0.0 0.00 0.00 0.00 48 1010.9
20260903180303 36 170 0.0 0.0 0.00 0.00 0.00 49 1011.0
20260903174803 36 161 0.0 0.0 0.00 0.00 0.00 49 1011.2
20260903174303 36 147 0.0 0.0 0.00 0.00 0.00 50 1011.2
20260903173804 36 177 0.0 0.0 0.00 0.00 0.00 51 1011.3
20260903173304 36 198 0.0 0.0 0.00 0.00 0.00 50 1011.3
20260903171804 36 3 0.0 0.0 0.00 0.00 0.00 53 1011.6
20260903171303 35 180 0.0 0.0 0.00 0.00 0.00 55 1011.7
20260903170803 35 259 0.0 0.0 0.00 0.00 0.00 54 1011.7
20260903170306 35 270 0.0 0.0 0.00 0.00 0.00 54 1011.7
20260903164803 33 187 0.0 0.0 0.00 0.00 0.00 59 1011.8
20260903164303 33 163 0.0 0.0 0.00 0.00 0.00 60 1011.8
20260903163303 32 153 0.0 1.6 0.00 0.00 0.00 61 1012.0
20260903161803 32 144 0.0 0.0 0.00 0.00 0.00 60 1012.0
20260903161303 32 196 0.0 0.0 0.00 0.00 0.00 60 1012.1
20260903160804 32 185 0.0 0.0 0.00 0.00 0.00 61 1012.1
20260903160304 32 186 0.0 1.6 0.00 0.00 0.00 62 1012.1
20260903154804 31 157 0.0 0.0 0.00 0.00 0.00 67 1012.2
20260903154302 31 157 0.0 0.0 0.00 0.00 0.00 66 1012.3
20260903153802 31 157 0.0 0.0 0.00 0.00 0.00 67 1012.3
20260903153302 30 282 0.0 1.6 0.00 0.00 0.00 67 1012.3
20260903151801 30 187 0.0 0.0 0.00 0.00 0.00 70 1012.3
20260903151302 30 187 0.0 0.0 0.00 0.00 0.00 70 1012.3
20260903150801 30 187 0.0 0.0 0.00 0.00 0.00 70 1012.3
20260903150302 30 177 0.0 0.0 0.00 0.00 0.00 71 1012.2
20260903144302 28 170 0.0 0.0 0.00 0.00 0.00 74 1012.2
20260903143801 28 170 0.0 0.0 0.00 0.00 0.00 73 1012.2
20260903143302 28 170 0.0 0.0 0.00 0.00 0.00 74 1012.2
20260903141802 28 170 0.0 0.0 0.00 0.00 0.00 73 1012.2
20260903141301 28 172 0.0 1.6 0.00 0.00 0.00 75 1012.3
20260903134801 26 164 0.0 0.0 0.00 0.00 0.00 78 1012.3
20260903133802 26 164 0.0 0.0 0.00 0.00 0.00 79 1012.4
20260903131302 25 97 0.0 0.0 0.00 0.00 0.00 83 1012.2
20260903130802 25 97 0.0 0.0 0.00 0.00 0.00 84 1012.2
20260903130302 24 97 0.0 0.0 0.00 0.00 0.00 85 1012.2
20260903124801 23 97 0.0 0.0 0.00 0.00 0.00 88 1012.2
20260903124302 23 97 0.0 0.0 0.00 0.00 0.00 89 1012.2
20260903123802 22 97 0.0 0.0 0.00 0.00 0.00 88 1012.2
20260903123302 22 97 0.0 0.0 0.00 0.00 0.00 88 1012.1
20260903121802 22 97 0.0 0.0 0.00 0.00 0.00 89 1012.1
20260903121302 22 97 0.0 0.0 0.00 0.00 0.00 89 1012.1
20260903120802 22 97 0.0 0.0 0.00 0.00 0.00 88 1012.1
20260903120301 22 97 0.0 0.0 0.00 0.00 0.00 88 1012.1
20260903114802 22 97 0.0 0.0 0.00 0.00 0.00 88 1012.0
20260903114301 22 97 0.0 0.0 0.00 0.00 0.00 88 1011.9
20260903113801 22 97 0.0 0.0 0.00 0.00 0.00 88 1011.9
20260903110302 22 97 0.0 0.0 0.00 0.00 0.00 87 1011.7
20260903104802 22 97 0.0 0.0 0.00 0.00 0.00 86 1011.5
20260903104302 22 97 0.0 0.0 0.00 0.00 0.00 86 1011.4
20260903103803 23 97 0.0 0.0 0.00 0.00 0.00 87 1011.4
20260903103302 23 97 0.0 0.0 0.00 0.00 0.00 86 1011.4
20260903101802 23 97 0.0 0.0 0.00 0.00 0.00 86 1011.4
20260903101302 23 97 0.0 0.0 0.00 0.00 0.00 86 1011.4
20260903100302 23 97 0.0 0.0 0.00 0.00 0.00 87 1011.4
20260903094802 23 97 0.0 0.0 0.00 0.00 0.00 86 1011.4
20260903093802 23 97 0.0 0.0 0.00 0.00 0.00 85 1011.4
20260903093302 23 97 0.0 0.0 0.00 0.00 0.00 85 1011.4
20260903091802 23 97 0.0 0.0 0.00 0.00 0.00 84 1011.4
20260903090801 23 97 0.0 0.0 0.00 0.00 0.00 84 1011.4
20260903090302 23 97 0.0 0.0 0.00 0.00 0.00 84 1011.3
20260903084802 23 97 0.0 0.0 0.00 0.00 0.00 85 1011.4
20260903083802 23 97 0.0 0.0 0.00 0.00 0.00 84 1011.3
20260903083302 24 97 0.0 0.0 0.00 0.00 0.00 84 1011.3
20260903081802 24 97 0.0 0.0 0.00 0.00 0.00 82 1011.2
20260903081302 24 97 0.0 0.0 0.00 0.00 0.00 82 1011.1
20260903080802 24 97 0.0 0.0 0.00 0.00 0.00 83 1011.1
20260903080302 24 97 0.0 0.0 0.00 0.00 0.00 83 1011.1
20260903074802 24 97 0.0 0.0 0.00 0.00 0.00 83 1011.1
20260903074302 24 97 0.0 0.0 0.00 0.00 0.00 82 1011.1
20260903073802 24 97 0.0 0.0 0.00 0.00 0.00 82 1011.1
20260903073302 25 97 0.0 0.0 0.00 0.00 0.00 82 1011.2
20260903071802 25 97 0.0 0.0 0.00 0.00 0.00 82 1011.2
20260903071302 25 97 0.0 0.0 0.00 0.00 0.00 82 1011.2
20260903070802 25 97 0.0 0.0 0.00 0.00 0.00 83 1011.2
20260903064801 25 97 0.0 0.0 0.00 0.00 0.00 80 1011.2
20260903064302 25 97 0.0 0.0 0.00 0.00 0.00 80 1011.2
20260903063802 25 97 0.0 0.0 0.00 0.00 0.00 81 1011.2
20260903063302 25 97 0.0 0.0 0.00 0.00 0.00 79 1011.2
20260903061802 26 97 0.0 0.0 0.00 0.00 0.00 79 1011.3
20260903061302 26 97 0.0 0.0 0.00 0.00 0.00 79 1011.2
20260903060802 26 97 0.0 0.0 0.00 0.00 0.00 79 1011.2
20260903060302 26 97 0.0 0.0 0.00 0.00 0.00 78 1011.1
20260903054802 26 97 0.0 0.0 0.00 0.00 0.00 77 1011.1
20260903054302 26 97 0.0 0.0 0.00 0.00 0.00 77 1011.0
20260903053802 27 97 0.0 0.0 0.00 0.00 0.00 76 1011.0
20260903053302 27 126 0.0 0.0 0.00 0.00 0.00 76 1011.0
20260903051802 27 126 0.0 0.0 0.00 0.00 0.00 74 1010.9
20260903051302 27 126 0.0 0.0 0.00 0.00 0.00 73 1010.9
20260903050802 27 131 0.0 0.0 0.00 0.00 0.00 74 1010.9
20260903050302 27 131 0.0 0.0 0.00 0.00 0.00 74 1010.9
20260903044803 28 157 0.0 0.0 0.00 0.00 0.00 73 1010.7
20260903043802 28 142 0.0 0.0 0.00 0.00 0.00 73 1010.6
20260903043302 28 136 0.0 0.0 0.00 0.00 0.00 73 1010.6
20260903041802 28 129 0.0 0.0 0.00 0.00 0.00 73 1010.7
20260903041302 28 123 0.0 0.0 0.00 0.00 0.00 73 1010.7
20260903040804 28 123 0.0 0.0 0.00 0.00 0.00 73 1010.7
20260903040302 28 123 0.0 0.0 0.00 0.00 0.00 73 1010.7
20260903033302 28 123 0.0 0.0 0.00 0.00 0.00 73 1010.7
20260903031302 28 123 0.0 0.0 0.00 0.00 0.00 73 1010.8
20260903030302 28 123 0.0 0.0 0.00 0.00 0.00 73 1010.7
20260903024802 29 123 0.0 0.0 0.00 0.00 0.00 70 1010.7
20260903024302 29 123 0.0 0.0 0.00 0.00 0.00 70 1010.8
20260903023802 29 123 0.0 0.0 0.00 0.00 0.00 70 1010.8
20260903023302 29 123 0.0 0.0 0.00 0.00 0.00 70 1010.7
20260903021802 28 142 0.0 0.0 0.00 0.00 0.00 72 1010.7
20260903014803 28 142 0.0 0.0 0.00 0.00 0.00 72 1010.3
20260903014303 28 142 0.0 0.0 0.00 0.00 0.00 72 1010.3
20260903013802 28 142 0.0 0.0 0.00 0.00 0.00 72 1010.2
20260903013302 29 142 0.0 0.0 0.00 0.00 0.00 72 1010.1
20260903011802 29 142 0.0 0.0 0.00 0.00 0.00 72 1010.0
20260903011302 29 142 0.0 0.0 0.00 0.00 0.00 72 1009.9
20260903010802 29 142 0.0 0.0 0.00 0.00 0.00 72 1009.9
20260903010302 29 142 0.0 0.0 0.00 0.00 0.00 72 1009.9
20260903004803 30 142 0.0 0.0 0.00 0.00 0.00 71 1010.0
20260903004303 30 142 0.0 0.0 0.00 0.00 0.00 70 1009.9
20260903003803 30 142 0.0 0.0 0.00 0.00 0.00 70 1009.9
20260903003302 30 142 0.0 0.0 0.00 0.00 0.00 70 1009.9
20260903001802 31 142 0.0 0.0 0.00 0.00 0.00 68 1010.0
20260903000802 31 142 0.0 0.0 0.00 0.00 0.00 67 1010.0
20260903000303 31 142 0.0 0.0 0.00 0.00 0.00 67 1010.0
20260902234802 31 142 0.0 0.0 0.00 0.00 0.00 65 1010.0
20260902234303 31 142 0.0 0.0 0.00 0.00 0.00 64 1010.0
20260902233803 31 142 0.0 0.0 0.00 0.00 0.00 64 1010.0
20260902233302 32 142 0.0 0.0 0.00 0.00 0.00 62 1010.1
20260902231302 32 142 0.0 0.0 0.00 0.00 0.00 60 1010.0
20260902230802 32 142 0.0 0.0 0.00 0.00 0.00 60 1010.0
20260902230302 32 142 0.0 0.0 0.00 0.00 0.00 59 1010.0
20260902224802 33 142 0.0 0.0 0.00 0.00 0.00 60 1010.1
20260902223802 33 142 0.0 0.0 0.00 0.00 0.00 58 1010.1
20260902223302 33 135 0.0 0.0 0.00 0.00 0.00 61 1010.1
20260902221803 33 78 0.0 0.0 0.00 0.00 0.00 65 1010.1
20260902221302 33 157 0.0 0.0 0.00 0.00 0.00 64 1010.1
20260902220802 33 157 0.0 0.0 0.00 0.00 0.00 63 1010.1
20260902220302 33 157 0.0 0.0 0.00 0.00 0.00 63 1010.1
20260902214802 34 157 0.0 0.0 0.00 0.00 0.00 60 1010.3
20260902214302 34 157 0.0 0.0 0.00 0.00 0.00 60 1010.4
20260902213802 34 157 0.0 0.0 0.00 0.00 0.00 56 1010.4
20260902213303 34 157 0.0 0.0 0.00 0.00 0.00 56 1010.4
20260902211802 34 157 0.0 0.0 0.00 0.00 0.00 58 1010.5
20260902211302 34 157 0.0 0.0 0.00 0.00 0.00 57 1010.6
20260902210802 35 157 0.0 0.0 0.00 0.00 0.00 56 1010.5
20260902210303 35 157 0.0 0.0 0.00 0.00 0.00 54 1010.6
20260902204802 36 157 0.0 0.0 0.00 0.00 0.00 49 1010.7
20260902204303 36 157 0.0 0.0 0.00 0.00 0.00 48 1010.8
20260902203803 36 157 0.0 0.0 0.00 0.00 0.00 47 1010.8
20260902203303 36 157 0.0 0.0 0.00 0.00 0.00 47 1010.8
20260902201803 36 0 0.0 0.0 0.00 0.00 0.00 49 1011.0
20260902201303 36 0 0.0 1.6 0.00 0.00 0.00 45 1011.1
20260902200802 36 11 0.0 1.6 0.00 0.00 0.00 48 1011.2
20260902200302 36 252 0.0 1.6 0.00 0.00 0.00 46 1011.2